Погода в Красном Боре

Россия / Ярославская область     57°54′20″N   39°28′18″E
темп.,
°C
ветер,
м/с
пор.,
м/с
влажн.,
%
обл.,
%
осадки,
мм/ч
давл.,
гПа
погр.,
м
17 октября, вс
вс1700:00+4юз512905 0.0 1009495
03:00+3ююз512915 0.0 1008423
06:00+3юз6139095 0.0 1008661
09:00+4юз51185100 0.1 1008755
12:00+6юз6118098 0.0 1008937
15:00+7юз61177100 0.1 1007995
18:00+6юз61285100 0.0 1008793
21:00+5зюз5128799 0.3 1008707
18 октября, пн
пн1800:00+4зюз4119256 0.1 1008459
03:00+3юз399582 0.1 1008308
06:00+3юз3894100 0.0 1007255
09:00+4юз3791100 0.4 1006459
12:00+5зюз4775100 0.3 1005977
15:00+6з476063 0.4 10051281
18:00+3зюз49785 0.5 1006360
21:00+2з499154 0.5 1007434
19 октября, вт
вт1900:00+2з499698 0.1 1007552
03:00+3зсз388792 0.3 1008743
06:00+2сз379092 0.3 1010483
09:00+2сз378986 0.3 1012472
12:00+4ссз457490 0.2 1013954
15:00+3ссз4668100 0.4 10141104
18:00+3сз3772100 0.0 1015468
21:00+2зсз2685100 0.1 1016423
20 октября, ср
ср2000:00+1ссз379798 0.6 1017380
03:00−1сз388039 0.8 1018401
06:00−2зсз378695 0.0 1019377
09:000сз4786100 0.2 1020640
12:00+1зсз4468100 0.1 10201056
15:00+1зюз346255 0.1 1020908
18:00−1ююз357997 0.0 1020124
21:00−1ю4108234 0.0 1018342
21 октября, чт
чт2100:00−1ю51374100 0.0 1014497
03:000ю71668100 0.0 1011609
06:00+1ю71780100 0.6 1007803
09:00+3ююз71688100 1.1 1004755
12:00+4ююз71788100 0.9 1002690
15:00+6ююз71678100 1.5 1000692
18:00+6ююз71785100 1.3 999874
21:00+7юз81786100 2.5 997900